Location: Freistadt
(48.5112°N, 14.5013°E)
Time: 09:43:24
(UTC+02:00)

NOAA 16 DEB - Pass Details

Date: 01 June 2024
Orbit: 738 x 809 km, 99.0° (Epoch: 20 June)

Event Time Altitude Azimuth Distance (km) Brightness Sun altitude
Rises 03:43:20 0° 147° (SSE) 3,315 ? -10.5°
Reaches altitude 10° 03:45:43 10° 143° (SE) 2,384 ? -10.3°
Maximum altitude 03:50:49 52° 68° (ENE) 994 ? -9.7°
Drops below altitude 10° 03:55:52 10° 354° (N) 2,365 ? -9.2°
Sets 03:58:14 0° 349° (N) 3,287 ? -8.9°
